Torna al catalogo

ONEWEB-0611

AttivoComunicazioniPO
NORAD 54674·PAYLOAD·🇬🇧 United Kingdom

Lanciato Dec 8, 2022 da Cape Canaveral Space Force Station

Loading…

Prossimi Passaggi (prossime 24 ore)

TLE

AggiornatoSource: CelesTrak SupGP

Epoca: Sep 14, 2026, 23:23 UTC

1 54674C 22166AJ  26257.97449488 -.00003258  00000+0 -78980-2 0  2578
2 54674  87.9281 226.1035 0002021  80.7396 359.6492 13.21832388    18

Traccia ONEWEB-0611 in tempo reale con AllMySat

Download on the App Store